Wind_Speed
13 13 14 16 18 20 22 24 27 29 32 34 37 39 41 44 47 49 50 51 52 54 56 58 59 59 60 61 61 61 61 60 59 57 55 53 50 48 47 46 45 45 46 47
13 14 15 17 19 22 24 26 28 31 33 36 38 41 44 47 49 50 51 52 53 55 57 57 58 59 61 61 61 61 60 59 57 55 53 51 49 47 44 42 41 41 41 42
15 16 17 19 21 23 25 28 31 33 36 38 40 42 47 50 50 51 52 53 55 56 56 57 59 60 61 60 59 59 58 57 55 53 50 48 47 44 42 40 39 38 37 37
16 18 19 22 24 26 27 30 32 35 39 41 43 45 49 51 51 52 53 54 55 55 56 58 59 60 59 59 58 57 56 54 52 49 47 46 44 42 41 39 38 37 35 35
18 19 21 23 26 28 31 32 35 38 41 43 46 47 47 50 51 52 53 54 55 56 58 59 59 59 58 57 55 53 52 50 47 45 44 42 41 40 39 38 36 35 34 33
20 21 23 25 27 30 33 35 38 41 44 46 49 50 50 50 51 52 53 55 56 57 58 58 58 58 57 54 52 50 49 47 45 43 41 39 38 37 36 36 35 33 32 31
20 22 24 26 29 32 35 38 40 43 45 48 50 52 53 53 52 53 55 56 56 57 58 57 57 56 55 52 50 49 47 45 42 39 37 35 34 33 32 32 32 31 30 29
21 23 25 27 30 32 35 38 41 44 47 49 51 52 53 53 53 54 55 55 56 56 56 56 55 55 54 51 49 46 45 42 38 35 33 32 31 29 28 28 28 28 28 27
22 24 26 28 31 33 36 40 43 46 48 50 52 53 53 53 54 54 54 54 54 54 54 54 54 54 52 50 47 43 41 38 34 30 28 27 26 24 24 25 25 25 26 25
22 24 26 29 31 34 37 41 44 47 50 51 52 53 54 53 52 52 53 53 52 52 53 53 53 52 50 48 44 40 37 33 29 26 23 21 19 18 18 19 21 22 23 23
23 25 27 29 32 35 38 41 45 48 50 52 52 53 53 52 51 52 51 51 51 52 53 53 52 50 49 45 41 37 33 29 25 22 19 16 14 12 13 15 17 18 19 20
24 26 28 30 33 36 38 42 45 48 50 52 53 53 52 50 50 51 50 50 50 51 52 52 51 49 47 43 39 36 31 27 23 18 15 12 10 9 9 11 13 15 16 16
24 27 29 31 33 36 39 43 46 49 51 52 52 51 51 50 49 49 49 49 50 51 51 51 50 48 46 43 38 35 31 26 22 17 13 10 8 5 5 7 9 11 12 13
25 27 29 31 34 37 40 43 46 49 51 52 51 51 50 49 49 48 48 49 49 49 50 49 48 46 45 43 39 36 31 26 21 18 14 10 7 4 2 2 5 7 9 10
25 27 29 31 34 37 40 43 46 48 50 50 50 50 50 48 48 46 46 47 47 47 48 48 47 45 43 41 38 35 32 27 23 19 16 12 9 6 4 2 1 3 5 7
26 27 30 32 34 37 40 43 45 47 49 49 50 49 49 48 47 45 45 45 45 46 46 47 45 44 42 40 38 35 32 29 25 22 18 15 12 9 7 5 3 2 2 3
27 29 30 33 35 38 41 43 46 48 49 50 50 49 48 47 45 43 43 42 43 44 45 45 44 42 41 39 37 35 32 30 27 24 21 18 16 14 12 10 9 8 7 7
28 30 32 34 36 39 41 44 46 48 49 49 50 49 47 45 43 42 41 40 40 41 41 42 42 41 39 38 37 36 33 31 29 27 24 22 20 18 16 15 14 14 13 13
30 32 33 35 37 39 41 44 46 47 48 49 49 48 46 44 42 41 39 37 37 37 37 39 39 39 37 36 35 34 34 32 30 29 27 25 22 21 19 18 18 18 18 19
32 33 34 36 37 40 42 44 46 47 48 48 48 47 44 42 40 39 37 36 35 35 35 35 36 35 35 34 33 33 32 31 30 30 29 27 25 24 23 23 23 23 24 24
34 35 36 37 38 40 42 44 46 47 47 47 47 46 43 41 39 37 35 34 33 32 32 32 32 31 31 32 31 31 30 30 29 28 28 28 27 26 26 26 26 26 26 26
36 37 37 38 39 41 43 45 46 47 47 46 45 44 42 39 37 35 33 32 31 30 30 29 28 28 28 28 28 28 28 28 27 26 26 26 26 25 25 25 26 26 26 27
38 38 39 39 40 42 44 45 46 46 45 44 43 42 40 38 35 33 31 30 29 28 27 26 25 24 24 25 25 26 26 27 26 26 25 25 25 25 24 24 25 26 26 27
40 40 41 41 41 42 44 45 45 45 44 43 42 41 39 36 34 31 29 28 27 25 24 22 21 20 21 21 22 23 23 24 24 25 25 25 24 24 24 24 24 25 26 26
42 41 42 42 42 43 44 44 44 44 43 42 40 39 38 35 32 29 27 26 25 22 20 18 17 17 17 17 18 20 20 21 21 22 22 23 23 23 23 23 23 23 24 24
43 43 44 43 43 43 43 42 42 42 41 40 38 37 36 34 30 27 25 24 23 20 17 15 13 13 13 14 15 16 17 17 18 18 18 19 20 20 21 21 21 21 21 21
44 44 44 43 43 43 42 41 40 40 39 38 36 35 33 32 29 25 23 22 20 18 15 12 10 9 9 10 11 12 13 13 14 15 16 16 17 17 18 18 18 19 19 19
Wind_Direction
328 328 326 323 321 322 324 324 322 322 321 322 322 322 322 321 321 321 321 320 319 318 317 315 313 312 310 308 306 304 303 301 299 296 293 290 286 283 279 275 271 267 264 261
330 331 331 328 327 328 328 326 324 324 325 326 326 326 325 324 324 323 322 321 320 318 317 316 314 312 311 309 307 305 304 302 299 296 293 289 286 282 278 274 270 267 264 262
331 333 331 328 329 330 329 328 328 329 330 330 330 330 328 326 326 325 324 323 321 320 318 317 315 314 313 311 308 306 304 301 298 295 291 288 285 281 276 272 269 266 263 261
330 332 332 331 331 331 332 332 332 332 333 333 333 333 330 328 327 326 325 324 323 321 320 319 317 316 314 313 310 307 305 301 298 293 290 286 283 278 273 270 267 265 262 260
330 333 332 331 332 333 335 336 335 336 336 335 334 333 332 329 328 328 327 327 326 324 323 321 320 319 317 315 313 310 307 303 299 294 290 286 282 276 271 267 265 262 260 259
331 332 333 333 335 335 336 337 338 338 337 336 335 334 334 332 331 331 331 330 329 327 326 325 323 322 320 318 315 312 309 306 302 296 291 286 282 275 269 265 262 258 257 257
330 332 333 335 336 337 337 339 339 339 338 338 337 336 336 335 334 334 333 332 331 330 329 327 326 325 324 321 318 316 313 309 304 299 292 287 283 276 268 262 258 255 254 253
331 333 334 336 337 337 338 339 339 340 339 339 338 338 337 337 336 335 335 334 333 333 332 330 330 329 327 325 322 319 318 314 308 303 296 289 284 276 266 260 256 253 251 249
330 332 333 335 336 337 338 339 340 341 341 340 340 340 339 338 338 337 338 337 337 337 336 335 333 332 331 329 326 323 322 319 314 309 302 295 286 274 263 257 252 247 247 247
327 329 332 334 336 337 338 340 341 342 342 342 342 341 341 340 340 341 341 341 341 340 341 340 339 338 336 334 332 329 326 324 321 317 311 304 290 274 263 255 248 243 244 246
327 329 332 334 335 337 339 341 342 343 343 343 343 343 343 343 343 344 344 344 344 345 345 345 345 344 342 341 340 338 336 334 329 324 320 315 303 281 263 253 244 241 242 243
327 330 332 334 335 337 339 341 343 344 345 345 345 345 345 346 346 346 347 347 347 348 349 349 350 350 351 350 349 348 346 344 342 337 333 326 314 292 268 252 243 239 239 240
326 329 330 331 334 337 340 341 343 345 346 346 347 347 347 348 348 348 349 349 350 351 352 353 354 355 357 358 357 356 355 354 354 354 349 343 335 313 275 250 238 234 233 232
325 326 327 330 334 338 340 342 344 345 347 347 348 348 349 349 349 349 350 352 353 354 355 357 358 359 2 3 3 4 4 4 4 5 4 1 359 3 358 245 230 231 229 230
322 324 327 330 333 337 340 342 344 345 347 347 348 348 349 350 350 350 352 354 356 357 358 0 2 3 5 8 10 11 12 13 15 17 19 21 25 29 27 13 280 237 229 228
321 324 326 330 333 336 339 341 343 344 346 347 348 349 350 351 351 352 354 355 357 359 1 4 6 8 10 12 14 16 18 20 23 25 28 30 33 36 39 43 52 87 141 169
319 322 326 329 332 335 337 339 341 344 346 347 348 349 350 351 352 353 354 356 359 1 3 6 9 12 14 16 18 20 22 26 29 32 35 39 45 50 56 63 73 82 90 105
317 320 324 326 330 333 335 337 340 343 345 346 348 349 350 351 352 353 355 357 360 2 5 7 11 15 17 20 23 25 28 30 34 38 42 47 52 58 63 69 77 84 90 99
314 318 321 324 327 330 333 335 338 341 343 345 347 348 349 350 351 352 355 357 359 2 5 8 11 15 19 21 24 28 32 35 39 43 48 53 58 62 67 73 80 85 91 95
312 315 318 321 324 327 330 333 336 338 341 343 346 348 348 349 349 351 353 355 358 1 4 7 11 14 19 23 26 30 34 38 43 48 53 57 62 67 73 78 83 88 90 92
310 313 316 319 322 324 327 330 333 336 339 341 343 346 347 347 348 350 352 353 355 359 2 5 9 13 18 24 29 32 37 40 45 50 55 60 65 71 76 81 85 88 91 95
307 310 313 315 319 322 325 327 330 333 336 339 341 344 345 346 346 348 349 351 353 356 360 4 8 13 19 25 30 34 38 42 47 50 55 62 67 71 77 82 87 89 91 96
303 307 310 312 316 319 322 325 327 330 333 336 338 341 343 343 345 346 347 349 351 354 358 3 9 16 22 28 33 36 40 44 49 53 58 64 69 73 78 84 88 90 93 96
300 304 307 310 313 316 319 321 324 327 330 333 335 338 341 342 342 344 345 346 349 352 357 3 11 18 25 31 35 38 42 46 51 56 60 65 70 75 81 86 89 92 95 97
298 301 304 308 310 313 316 318 321 323 326 329 332 335 338 339 340 341 343 344 347 350 355 2 9 17 24 31 35 38 42 48 53 58 62 66 70 76 81 86 92 95 98 99
295 298 301 305 307 310 313 315 318 320 323 326 328 331 335 337 338 339 340 342 344 347 350 356 3 12 21 27 32 37 42 48 55 60 65 68 72 76 80 86 91 95 98 100
293 296 299 301 304 307 309 311 314 317 319 322 325 328 331 333 335 335 336 338 340 342 345 350 356 4 15 23 30 36 41 48 55 62 68 72 76 80 83 87 92 95 98 101
Height
5833 5831 5829 5826 5824 5821 5818 5814 5810 5805 5800 5794 5788 5781 5773 5765 5757 5749 5741 5732 5723 5714 5705 5696 5687 5679 5670 5661 5653 5644 5637 5630 5624 5619 5615 5612 5609 5608 5606 5606 5606 5606 5607 5609
5831 5829 5826 5824 5821 5817 5814 5810 5805 5800 5794 5788 5780 5772 5764 5756 5747 5738 5730 5721 5711 5702 5692 5683 5673 5664 5654 5645 5636 5626 5618 5611 5605 5599 5595 5592 5590 5589 5588 5588 5589 5589 5591 5592
5829 5827 5824 5821 5818 5814 5810 5805 5800 5793 5788 5780 5774 5765 5755 5746 5737 5728 5719 5709 5700 5690 5680 5670 5659 5649 5638 5628 5619 5610 5601 5594 5587 5582 5577 5574 5572 5571 5571 5572 5572 5574 5575 5577
5827 5825 5821 5820 5814 5810 5806 5801 5794 5788 5781 5773 5765 5758 5747 5736 5727 5718 5708 5699 5688 5678 5667 5656 5645 5634 5623 5613 5603 5593 5584 5576 5570 5564 5561 5558 5556 5555 5555 5556 5557 5559 5561 5563
5824 5821 5818 5815 5810 5805 5800 5795 5789 5781 5774 5766 5758 5751 5742 5730 5720 5709 5698 5687 5676 5665 5654 5642 5630 5619 5608 5597 5587 5577 5568 5560 5553 5548 5545 5542 5540 5539 5540 5541 5543 5545 5547 5550
5821 5818 5814 5812 5806 5800 5796 5790 5782 5775 5767 5758 5749 5740 5733 5721 5710 5699 5687 5676 5665 5653 5641 5629 5617 5605 5593 5582 5572 5562 5553 5545 5538 5533 5529 5527 5525 5525 5525 5527 5529 5532 5535 5538
5818 5815 5811 5807 5802 5797 5791 5785 5777 5769 5760 5751 5741 5731 5721 5710 5699 5688 5677 5666 5654 5642 5629 5617 5604 5592 5580 5569 5558 5548 5539 5531 5524 5519 5515 5513 5511 5511 5512 5513 5516 5520 5524 5527
5815 5811 5809 5803 5798 5793 5787 5780 5772 5764 5754 5745 5735 5724 5713 5702 5691 5680 5669 5657 5645 5633 5620 5607 5594 5581 5569 5557 5546 5536 5527 5518 5512 5506 5502 5500 5499 5499 5500 5502 5506 5509 5513 5517
5812 5810 5804 5799 5794 5788 5782 5775 5767 5758 5749 5739 5728 5717 5706 5695 5684 5672 5661 5649 5637 5624 5612 5598 5585 5571 5559 5547 5535 5525 5517 5509 5502 5497 5493 5490 5488 5489 5490 5493 5497 5501 5505 5509
5808 5805 5800 5795 5790 5784 5777 5769 5761 5752 5742 5732 5721 5710 5699 5688 5677 5666 5654 5642 5630 5618 5605 5592 5578 5564 5551 5538 5527 5517 5509 5501 5495 5490 5486 5483 5481 5482 5484 5486 5490 5494 5498 5501
5804 5801 5796 5791 5786 5779 5772 5765 5756 5747 5737 5726 5716 5705 5693 5682 5671 5660 5649 5637 5625 5612 5600 5586 5572 5558 5545 5532 5521 5511 5503 5496 5490 5485 5482 5479 5478 5478 5479 5482 5484 5488 5492 5495
5801 5796 5792 5787 5782 5775 5768 5760 5752 5743 5733 5722 5710 5699 5688 5677 5666 5655 5644 5633 5621 5608 5595 5582 5568 5555 5541 5529 5518 5508 5500 5493 5487 5483 5480 5478 5476 5476 5477 5479 5481 5484 5487 5490
5796 5792 5788 5783 5778 5771 5764 5756 5747 5738 5727 5717 5706 5695 5684 5673 5662 5652 5641 5629 5617 5605 5592 5579 5566 5553 5540 5528 5517 5508 5499 5493 5487 5483 5480 5478 5476 5476 5476 5477 5479 5482 5484 5487
5792 5789 5784 5779 5773 5767 5759 5751 5743 5733 5723 5713 5702 5692 5681 5670 5660 5649 5638 5627 5615 5603 5591 5578 5566 5553 5541 5530 5519 5509 5501 5494 5489 5484 5481 5479 5477 5477 5477 5477 5479 5481 5483 5485
5788 5784 5780 5775 5769 5762 5755 5747 5739 5730 5720 5710 5700 5689 5679 5668 5657 5647 5636 5625 5614 5603 5591 5579 5567 5556 5544 5533 5523 5513 5505 5498 5492 5488 5484 5482 5480 5479 5479 5479 5479 5480 5482 5483
5784 5780 5775 5770 5764 5758 5751 5743 5735 5726 5717 5707 5697 5686 5676 5666 5655 5645 5635 5625 5615 5604 5593 5581 5570 5558 5548 5538 5528 5519 5511 5504 5498 5493 5489 5486 5484 5482 5481 5481 5481 5481 5482 5483
5779 5775 5770 5765 5759 5753 5746 5739 5731 5722 5713 5703 5694 5684 5674 5664 5654 5645 5635 5625 5615 5605 5595 5584 5573 5563 5553 5544 5535 5526 5518 5511 5505 5499 5495 5491 5489 5487 5486 5485 5484 5484 5485 5485
5774 5770 5765 5760 5754 5748 5742 5734 5726 5718 5709 5700 5690 5681 5672 5663 5654 5644 5636 5626 5617 5608 5599 5589 5578 5569 5559 5550 5542 5534 5526 5519 5513 5507 5502 5498 5496 5494 5492 5491 5490 5490 5490 5490
5768 5764 5760 5755 5749 5743 5736 5729 5722 5714 5705 5696 5688 5679 5670 5661 5652 5644 5636 5628 5620 5612 5603 5593 5584 5575 5566 5558 5550 5542 5535 5528 5522 5517 5512 5508 5505 5502 5500 5499 5498 5497 5497 5498
5762 5758 5754 5749 5743 5737 5731 5724 5717 5709 5701 5693 5685 5676 5668 5660 5652 5644 5636 5628 5621 5613 5605 5597 5589 5581 5573 5565 5557 5550 5544 5538 5533 5527 5523 5519 5515 5513 5510 5509 5508 5507 5507 5508
5755 5751 5747 5742 5737 5731 5725 5719 5712 5705 5697 5690 5682 5674 5666 5658 5650 5643 5636 5629 5622 5615 5608 5601 5593 5586 5579 5572 5565 5559 5553 5547 5542 5538 5534 5530 5526 5524 5522 5520 5519 5519 5519 5519
5747 5744 5740 5735 5730 5725 5719 5713 5706 5700 5693 5686 5678 5671 5663 5656 5649 5642 5635 5629 5622 5616 5610 5603 5596 5590 5584 5578 5572 5567 5561 5556 5552 5547 5544 5540 5537 5535 5533 5532 5531 5531 5530 5531
5739 5736 5732 5727 5723 5718 5712 5706 5700 5694 5688 5681 5675 5668 5661 5654 5647 5641 5635 5628 5622 5616 5611 5605 5599 5594 5589 5584 5579 5574 5569 5565 5560 5557 5553 5550 5548 5546 5544 5543 5542 5542 5542 5542
5730 5727 5723 5719 5715 5710 5705 5700 5694 5688 5682 5677 5670 5664 5658 5651 5645 5639 5633 5627 5622 5616 5611 5606 5601 5597 5593 5589 5585 5581 5577 5573 5569 5565 5562 5560 5558 5556 5555 5554 5553 5553 5553 5554
5720 5717 5714 5711 5707 5702 5698 5693 5688 5682 5677 5671 5666 5660 5654 5648 5642 5637 5631 5626 5621 5616 5612 5608 5604 5601 5597 5594 5590 5587 5583 5580 5577 5574 5571 5569 5567 5566 5565 5564 5564 5564 5564 5564
5710 5707 5704 5701 5698 5694 5690 5685 5681 5676 5671 5666 5661 5655 5650 5644 5639 5634 5629 5625 5620 5616 5612 5609 5606 5603 5600 5598 5595 5592 5589 5586 5584 5581 5579 5577 5576 5575 5574 5573 5573 5573 5573 5573
5699 5697 5694 5692 5688 5685 5681 5677 5673 5669 5664 5660 5655 5651 5646 5641 5636 5631 5627 5623 5619 5615 5612 5609 5607 5604 5602 5600 5598 5596 5594 5592 5589 5588 5586 5584 5583 5582 5582 5581 5581 5581 5581 5582